This is the latest recevied weather packets stored in our database for station/object N1YZ. If no packets are shown the sender has not sent any weather packets the latest 10 day(s).
| Time | Temp. | Humidity | Pressure | Rain* | Wind** | Luminosity | Snow |
|---|---|---|---|---|---|---|---|
| 1777995033 | 20.56° C | 69% | 1034.8 hPa | 0 mm | - | 74 W/m² | - |
| 1777994729 | 21.11° C | 70% | 1034.8 hPa | 0 mm | - | 296 W/m² | - |
| 1777994425 | 21.11° C | 69% | 1034.6 hPa | 0 mm | - | 243 W/m² | - |
| 1777994120 | 21.11° C | 73% | 1034.6 hPa | 0 mm | - | 238 W/m² | - |
| 1777993818 | 20.56° C | 69% | 1034.8 hPa | 0 mm | - | 277 W/m² | - |
| 1777993514 | 20.56° C | 70% | 1034.8 hPa | 0 mm | - | 266 W/m² | - |
| 1777993210 | 21.11° C | 69% | 1034.8 hPa | 0 mm | - | 128 W/m² | - |
| 1777992907 | 20.56° C | 70% | 1034.7 hPa | 0 mm | - | 428 W/m² | - |
| 1777992605 | 20° C | 71% | 1034.6 hPa | 0 mm | - | 251 W/m² | - |
| 1777992302 | 20° C | 71% | 1035.1 hPa | 0 mm | - | 158 W/m² | - |
| 1777991999 | 20° C | 73% | 1034.8 hPa | 0 mm | - | 45 W/m² | - |
| 1777991697 | 20° C | 71% | 1034.7 hPa | 0 mm | - | 62 W/m² | - |
| 1777991394 | 20.56° C | 69% | 1035.1 hPa | 0 mm | - | 85 W/m² | - |
| 1777991091 | 20.56° C | 72% | 1035 hPa | 0 mm | - | 391 W/m² | - |
| 1777990788 | 19.44° C | 73% | 1034.7 hPa | 0 mm | - | 376 W/m² | - |
| 1777990485 | 18.89° C | 75% | 1034.7 hPa | 0 mm | - | 363 W/m² | - |
| 1777989879 | 17.78° C | 78% | 1035 hPa | 0 mm | - | 31 W/m² | - |
| 1777989576 | 17.22° C | 78% | 1035 hPa | 0 mm | - | 28 W/m² | - |
| 1777989272 | 17.78° C | 80% | 1034.6 hPa | 0 mm | - | 31 W/m² | - |
| 1777988969 | 17.78° C | 78% | 1034.6 hPa | 0 mm | - | 39 W/m² | - |
| 1777988665 | 17.22° C | 79% | 1034.5 hPa | 0 mm | - | 39 W/m² | - |
| 1777988361 | 17.22° C | 81% | 1034.4 hPa | 0 mm | - | 92 W/m² | - |
| 1777988059 | 16.67° C | 82% | 1034.4 hPa | 0 mm | - | 82 W/m² | - |
| 1777987755 | 16.67° C | 82% | 1034.3 hPa | 0 mm | - | 67 W/m² | - |
| 1777987452 | 16.11° C | 81% | 1034.4 hPa | 0 mm | - | 63 W/m² | - |
* Rain latest hour (hover to see other rain measurements)
** Current wind speed in m/s (hover to see current wind gust speed)